FENGYUN 1C DEB, 29978

Orbit data source: Space-Track

FENGYUN 1C DEB, 29978 is space debris in SSO originally from a launch on Mon, 10 May 1999 UTC launched from the Taiyaun Space Center, China (TSC). Fengyun 1C debris stems from the Chinese weather satellite Fengyun-1C, which was intentionally destroyed by a Chinese anti-satellite missile in 2007. This event dramatically increased the amount of space debris, with thousands of trackable fragments posing hazards to satellites and human spaceflight. The Fengyun 1C debris cloud has become a focal point in discussions about space sustainability and the need for international regulations to prevent the creation of new debris.

Loading next visibility...
Identifier
29978, 1999-025LC
Orbit
SSO
Country
Flag of CNCN / PRC
Related business
Manufacturer
Unknown
Mission
Spacecraft
Bus & Motor
Unknown
Mass
Unknown
Launch date (UTC)
1999-05-10 (27 years ago)
Launch vehicle
Unknown
Launch site
Taiyaun Space Center, China (TSC)
Object type
Payload
Rocket body
Debris
Shape & HBR
Unknown shape, 0.1 m
Radar Cross Section
Medium (>0.1 m² and <1 m²)

Expand to show TLE details & history
Last TLE update: 21 hours ago

TLE from 21 hours ago
0 FENGYUN 1C DEB
1 29978U 99025LC  26207.63413510 -.00000163  00000-0 -85379-4 0  9998
2 29978  99.0298 258.9916 0076673 152.0321 331.9938 13.95976797994682
Epoch: 2026-07-26T15:13Z
TLE epoch observation values (Epoch: 2026-07-26T15:13:09.272Z)
Latitude
55.4365°
Longitude
-80.36091°
Altitude
867.675 km
Speed
7.449 km/s
True Right ascension
06h 09m 01s
True Declination
55° 16' 41"
Sunlit
Object was in daylight at epoch
Visualization orbit readout
Latitude
Unknown
Longitude
Unknown
Altitude
Unknown
Speed
Unknown
Apparent Right ascension
Unknown
Apparent Declination
Unknown
Sunlit
N/A
Visualization observer readout
Local Sidereal Time
01:37:13
Azimuth
Unknown
Elevation
Unknown
Doppler factor
Unknown
Orbital elements
Apogee altitude
960.808 km
Perigee altitude
849.124 km
Semi-major axis
7,283.103 km
Eccentricity
0.00767
Inclination
99.0298°
RAAN
258.9916°
Arg. of periapsis
152.0321°
True anomaly
331.57772°
Mean anomaly
331.9938°
Eccentric anomaly
331.78611°
Mean motion
3.49195 °/min
Orbital period
103.09 mins
BSTAR
-0.000085379
Loading maneuver chart data...
Computing Atmospheric mass density...

Documentation

Showing up to 5 results
|